This demonstration page uses our WeatherBlox Daily Observations layout. Learn more.

Left ArrowRight Arrow

39.51506, -84.39828

Hourly Observations for April 21, 2020

Temp ( °F °C ) Dew Point ( °F °C ) Humidity (%) Winds ( mph kmh ) Pressure ( in mb ) Visibility ( mi km ) Precip ( " mm )
12:15 am 00:15 Cloudy 53 11.9 39 3.7 58 58 SSW 8 13 29.68 1005 N/A 0 0
12:35 am 00:35 Mostly Cloudy 54 12.1 38 3.3 55 55 SSW 10 17 29.68 1005 N/A 0 0
12:55 am 00:55 Partly Cloudy 53 11.7 38 3.5 57 57 SSW 10 17 29.67 1005 N/A 0 0
1:15 am 01:15 Mostly Cloudy 52 11.2 39 3.7 60 60 SSW 8 13 29.66 1004 N/A 0 0
1:35 am 01:35 Cloudy 52 11 41 4.9 66 66 SSW 8 13 29.66 1004 N/A 0 0
1:55 am 01:55 Cloudy 53 11.6 41 4.8 63 63 WSW 15 24 29.69 1006 N/A 0 0
2:15 am 02:15 Cloudy 53 11.9 43 5.9 67 67 SW 14 22 29.66 1005 N/A 0 0
2:35 am 02:35 Cloudy 53 11.5 42 5.8 68 68 SSW 15 24 29.66 1004 N/A 0 0
2:55 am 02:55 Mostly Cloudy 53 11.7 43 6 68 68 SW 16 26 29.63 1004 N/A 0 0
3:15 am 03:15 Partly Cloudy 53 11.8 42 5.7 66 66 SW 14 22 29.62 1003 N/A 0 0
3:35 am 03:35 Clear 52 11.2 42 5.8 70 70 SW 12 19 29.63 1003 N/A 0 0
3:55 am 03:55 Partly Cloudy 52 11 42 5.7 70 70 SW 10 17 29.62 1003 N/A 0 0
4:15 am 04:15 Cloudy 52 11.2 42 5.8 70 70 SW 9 15 29.63 1003 N/A 0 0
4:35 am 04:35 Clear 51 10.7 42 5.3 70 70 SW 8 13 29.63 1003 N/A 0 0
4:55 am 04:55 Partly Cloudy 51 10.8 41 5.1 68 68 SW 9 15 29.63 1003 N/A 0 0
5:15 am 05:15 Partly Cloudy 51 10.4 41 5.2 70 70 SW 7 11 29.63 1003 N/A 0 0
5:35 am 05:35 Cloudy 52 10.9 42 5.5 70 70 SW 8 13 29.64 1004 N/A 0 0
5:55 am 05:55 Cloudy 52 10.9 42 5.5 70 70 WSW 7 11 29.65 1004 N/A 0 0
6:15 am 06:15 Clear 53 11.4 42 5.4 67 67 W 8 13 29.66 1004 N/A 0 0
6:35 am 06:35 Partly Cloudy 52 11 42 5.4 69 69 W 10 17 29.67 1005 N/A 0 0
6:55 am 06:55 Sunny 51 10.6 42 5.4 70 70 W 9 15 29.68 1005 N/A 0 0
7:15 am 07:15 Sunny 50 10 42 5.5 74 74 NNW 12 19 29.7 1006 N/A 0 0
7:35 am 07:35 Sunny 48 8.9 39 3.8 71 71 N 9 15 29.72 1006 N/A 0 0
7:55 am 07:55 Sunny 48 8.9 37 2.7 65 65 NW 12 19 29.74 1007 N/A 0 0
8:15 am 08:15 Sunny 47 8.5 34 1.2 60 60 NNW 12 19 29.76 1008 N/A 0 0
8:35 am 08:35 Cloudy 47 8.1 33 0.8 60 60 NNW 16 26 29.78 1009 N/A 0 0
8:55 am 08:55 Mostly Cloudy 46 7.9 32 0 58 58 NNW 15 24 29.8 1009 N/A 0 0
9:15 am 09:15 Mostly Cloudy 47 8.6 32 -0.1 55 55 NW 15 24 29.81 1010 N/A 0 0
9:35 am 09:35 Sunny 48 8.9 30 -1.1 50 50 NW 12 19 29.82 1010 N/A 0 0
9:55 am 09:55 Sunny 49 9.3 28 -2.3 44 44 NW 18 30 29.83 1010 N/A 0 0
10:15 am 10:15 Partly Cloudy 49 9.6 28 -2 45 45 WNW 16 26 29.83 1010 N/A 0 0
10:35 am 10:35 Partly Cloudy 49 9.7 28 -2.3 43 43 WNW 15 24 29.84 1010 N/A 0 0
10:55 am 10:55 Sunny 50 9.8 26 -3.2 40 40 WNW 21 33 29.86 1011 N/A 0 0
11:15 am 11:15 Sunny 51 10.5 27 -2.8 40 40 WNW 17 28 29.86 1011 N/A 0 0
11:35 am 11:35 Sunny 50 10.2 24 -4.6 35 35 WNW 18 30 29.87 1011 N/A 0 0
11:55 am 11:55 Sunny 51 10.7 26 -3.4 37 37 WNW 15 24 29.88 1012 N/A 0 0
12:15 pm 12:15 Sunny 52 10.9 23 -5 33 33 WNW 21 33 29.89 1012 N/A 0 0
12:35 pm 12:35 Sunny 51 10.4 20 -6.9 29 29 WNW 20 31 29.89 1012 N/A 0 0
12:55 pm 12:55 Sunny 51 10.7 18 -7.7 27 27 WNW 18 30 29.9 1012 N/A 0 0
1:15 pm 13:15 Sunny 52 11.1 18 -8 26 26 WNW 16 26 29.91 1013 N/A 0 0
1:35 pm 13:35 Sunny 51 10.7 14 -9.9 23 23 WNW 24 39 29.91 1013 N/A 0 0
1:55 pm 13:55 Sunny 52 11.1 18 -8 26 26 WNW 20 31 29.91 1013 N/A 0 0
2:15 pm 14:15 Sunny 52 11.3 18 -7.8 26 26 NW 23 37 29.92 1013 N/A 0 0
2:35 pm 14:35 Sunny 53 11.7 19 -7.5 26 26 WNW 18 30 29.91 1013 N/A 0 0
2:55 pm 14:55 Sunny 53 11.6 17 -8.4 24 24 WNW 21 33 29.92 1013 N/A 0 0
3:15 pm 15:15 Sunny 54 12 18 -7.7 25 25 W 21 33 29.92 1013 N/A 0 0
3:35 pm 15:35 Sunny 54 12 17 -8.1 24 24 WNW 24 39 29.93 1014 N/A 0 0
3:55 pm 15:55 Sunny 53 11.9 18 -7.9 24 24 W 21 33 29.93 1014 N/A 0 0
4:15 pm 16:15 Sunny 53 11.7 16 -9.1 23 23 W 23 37 29.93 1014 N/A 0 0
4:35 pm 16:35 Sunny 53 11.8 17 -8.3 24 24 WNW 20 31 29.94 1014 N/A 0 0
4:55 pm 16:55 Sunny 53 11.8 16 -9 23 23 W 15 24 29.95 1014 N/A 0 0
5:15 pm 17:15 Sunny 53 11.7 15 -9.3 22 22 WNW 16 26 29.95 1014 N/A 0 0
5:35 pm 17:35 Sunny 53 11.7 15 -9.4 22 22 WNW 14 22 29.95 1014 N/A 0 0
5:55 pm 17:55 Sunny 53 11.6 16 -9.1 23 23 WNW 14 22 29.96 1015 N/A 0 0
6:15 pm 18:15 Sunny 53 11.5 16 -9 23 23 WNW 20 31 29.97 1015 N/A 0 0
6:35 pm 18:35 Sunny 52 11.3 15 -9.4 23 23 NW 21 33 29.98 1015 N/A 0 0
6:55 pm 18:55 Sunny 52 11.1 15 -9.5 23 23 WNW 13 20 29.98 1015 N/A 0 0
7:15 pm 19:15 Sunny 51 10.8 14 -10.1 22 22 WNW 16 26 29.99 1015 N/A 0 0
7:35 pm 19:35 Sunny 51 10.4 15 -9.5 24 24 WNW 12 19 29.99 1016 N/A 0 0
7:55 pm 19:55 Sunny 50 10 15 -9.5 25 25 NW 15 24 29.99 1016 N/A 0 0
8:15 pm 20:15 Sunny 48 9 16 -9 27 27 WNW 8 13 30 1016 N/A 0 0
8:35 pm 20:35 Clear 47 8.6 15 -9.5 27 27 WNW 8 13 30 1016 N/A 0 0
8:55 pm 20:55 Clear 47 8.2 15 -9.3 28 28 NW 6 9 30.01 1016 N/A 0 0
9:15 pm 21:15 Clear 47 8.1 16 -9 29 29 NW 6 9 30.01 1016 N/A 0 0
9:35 pm 21:35 Clear 44 6.8 20 -6.5 38 38 Calm 30.03 1017 N/A 0 0
9:55 pm 21:55 Clear 40 4.6 27 -2.6 60 60 NNE 6 9 30.04 1017 N/A 0 0
10:15 pm 22:15 Clear 42 5.4 23 -4.8 48 48 NNE 6 9 30.04 1017 N/A 0 0
10:35 pm 22:35 Clear 38 3.4 28 -2.3 67 67 Calm 30.06 1018 N/A 0 0
10:55 pm 22:55 Clear 37 2.7 28 -2.4 69 69 Calm 30.06 1018 N/A 0 0
11:15 pm 23:15 Clear 37 2.7 27 -2.9 67 67 NNW 3 6 30.06 1018 N/A 0 0
11:35 pm 23:35 Clear 35 1.6 26 -3.2 71 71 Calm 30.07 1018 N/A 0 0
11:55 pm 23:55 Clear 34 1.3 26 -3.6 70 70 N 3 6 30.07 1018 N/A 0 0

Powered by AerisWeather